When you browse on this site, cookies collect data to enhance your experience and personalize the content and advertising you see.
Visit our Privacy Policy to learn more. By continuing to use the site, you agree to this use of cookies and data.
  • In France
  • List of Countries
  • For 7 days
  • Water Temperature
  • Satellite Maps
  • Weather Map
  • Weather Widgets
  • user-avatar
    Login

    Hourly Weather Bafatá

    Today, 21 July, Sunday

    Time Temperature Precipitation Wind Pressure Humidity
    00:00 +26°C° 0 mm 1 mps 759 mmHg 97%
    01:00 +26°C° 0 mm 1 mps 758 mmHg 97%
    02:00 +26°C° 0 mm 1 mps 758 mmHg 97%
    03:00 +25°C° 0 mm 1 mps 758 mmHg 97%
    04:00 +25°C° 0 mm 1 mps 757 mmHg 97%
    05:00 +25°C° 0 mm 1 mps 757 mmHg 97%
    06:00 +26°C° 0 mm 1 mps 758 mmHg 94%
    07:00 +26°C° 0 mm 2 mps 758 mmHg 92%
    08:00 +27°C° 0 mm 2 mps 759 mmHg 89%
    09:00 +29°C° 0 mm 2 mps 759 mmHg 81%
    10:00 +30°C° 0 mm 1 mps 759 mmHg 73%
    11:00 +32°C° 0 mm 1 mps 759 mmHg 66%
    12:00 +32°C° 0.1 mm 1 mps 758 mmHg 67%
    13:00 +32°C° 0.1 mm 1 mps 757 mmHg 68%
    14:00 +32°C° 0.1 mm 1 mps 757 mmHg 68%
    15:00 +32°C° 0.6 mm 1 mps 757 mmHg 72%
    16:00 +31°C° 0.6 mm 1 mps 756 mmHg 75%
    17:00 +31°C° 0.6 mm 2 mps 756 mmHg 78%
    18:00 +29°C° 0.5 mm 2 mps 757 mmHg 83%
    19:00 +28°C° 0.5 mm 2 mps 758 mmHg 88%
    20:00 +26°C° 0.5 mm 2 mps 758 mmHg 94%
    21:00 +26°C° 0.1 mm 2 mps 758 mmHg 94%
    22:00 +26°C° 0.1 mm 2 mps 758 mmHg 95%
    23:00 +26°C° 0.1 mm 2 mps 758 mmHg 96%

    Tomorrow, 22 July, Monday

    Time Temperature Precipitation Wind Pressure Humidity
    00:00 +26°C° 0.7 mm 1 mps 758 mmHg 96%
    01:00 +25°C° 0.7 mm 1 mps 758 mmHg 96%
    02:00 +23°C° 0.7 mm 0 mps 758 mmHg 97%
    03:00 +25°C° 0.5 mm 1 mps 758 mmHg 96%
    04:00 +25°C° 0.5 mm 2 mps 758 mmHg 96%
    05:00 +25°C° 0.5 mm 2 mps 758 mmHg 96%
    06:00 +25°C° 0 mm 2 mps 758 mmHg 95%
    07:00 +25°C° 0 mm 2 mps 759 mmHg 95%
    08:00 +26°C° 0 mm 3 mps 759 mmHg 95%
    09:00 +26°C° 0 mm 2 mps 759 mmHg 91%
    10:00 +27°C° 0 mm 1 mps 758 mmHg 87%
    11:00 +28°C° 0 mm 1 mps 758 mmHg 83%
    12:00 +28°C° 0.1 mm 1 mps 757 mmHg 85%
    13:00 +28°C° 0.1 mm 2 mps 757 mmHg 86%
    14:00 +27°C° 0.1 mm 2 mps 756 mmHg 88%
    15:00 +28°C° 0 mm 2 mps 756 mmHg 86%
    16:00 +28°C° 0 mm 1 mps 756 mmHg 84%
    17:00 +27°C° 0 mm 0 mps 755 mmHg 82%
    18:00 +26°C° 0 mm 0 mps 756 mmHg 85%
    19:00 +27°C° 0 mm 1 mps 756 mmHg 87%
    20:00 +27°C° 0 mm 1 mps 757 mmHg 90%
    21:00 +26°C° 0 mm 1 mps 757 mmHg 91%
    22:00 +26°C° 0 mm 1 mps 757 mmHg 92%
    23:00 +26°C° 0 mm 1 mps 757 mmHg 93%

    Day after tomorrow, 23 July, Tuesday

    Time Temperature Precipitation Wind Pressure Humidity
    00:00 +25°C° 0 mm 1 mps 757 mmHg 93%
    01:00 +25°C° 0 mm 1 mps 756 mmHg 94%
    02:00 +23°C° 0 mm 0 mps 756 mmHg 94%
    03:00 +23°C° 0 mm 0 mps 756 mmHg 95%
    04:00 +23°C° 0 mm 0 mps 756 mmHg 96%
    05:00 +23°C° 0 mm 0 mps 756 mmHg 97%
    06:00 +24°C° 0 mm 0 mps 756 mmHg 92%
    07:00 +25°C° 0 mm 0 mps 757 mmHg 88%
    08:00 +28°C° 0 mm 1 mps 757 mmHg 84%
    09:00 +30°C° 0 mm 1 mps 757 mmHg 78%
    10:00 +31°C° 0 mm 1 mps 757 mmHg 73%
    11:00 +32°C° 0 mm 2 mps 757 mmHg 68%
    12:00 +32°C° 0 mm 2 mps 756 mmHg 67%
    13:00 +34°C° 0 mm 2 mps 756 mmHg 67%
    14:00 +34°C° 0 mm 2 mps 755 mmHg 66%
    15:00 +33°C° 0.1 mm 3 mps 755 mmHg 70%
    16:00 +31°C° 0.1 mm 3 mps 754 mmHg 75%
    17:00 +31°C° 0.1 mm 3 mps 754 mmHg 79%
    18:00 +29°C° 0.2 mm 3 mps 755 mmHg 83%
    19:00 +28°C° 0.2 mm 2 mps 756 mmHg 87%
    20:00 +27°C° 0.2 mm 2 mps 756 mmHg 91%
    21:00 +27°C° 1.7 mm 2 mps 757 mmHg 93%
    22:00 +26°C° 1.7 mm 2 mps 758 mmHg 94%
    23:00 +26°C° 1.7 mm 2 mps 758 mmHg 95%

    24 July, Wednesday

    Time Temperature Precipitation Wind Pressure Humidity
    00:00 +26°C° 0.3 mm 2 mps 757 mmHg 96%
    01:00 +26°C° 0.3 mm 1 mps 757 mmHg 96%
    02:00 +25°C° 0.3 mm 1 mps 756 mmHg 96%
    03:00 +25°C° 0 mm 1 mps 756 mmHg 96%
    04:00 +25°C° 0 mm 1 mps 756 mmHg 96%
    05:00 +25°C° 0 mm 1 mps 756 mmHg 96%
    06:00 +24°C° 0 mm 0 mps 757 mmHg 95%
    07:00 +24°C° 0 mm 0 mps 757 mmHg 93%
    08:00 +25°C° 0 mm 0 mps 757 mmHg 92%
    09:00 +28°C° 0.8 mm 1 mps 757 mmHg 88%
    10:00 +29°C° 0.8 mm 1 mps 757 mmHg 84%
    11:00 +30°C° 0.8 mm 1 mps 757 mmHg 80%
    12:00 +29°C° 0.3 mm 2 mps 757 mmHg 82%
    13:00 +28°C° 0.3 mm 3 mps 757 mmHg 83%
    14:00 +28°C° 0.3 mm 4 mps 756 mmHg 84%
    15:00 +27°C° 0 mm 3 mps 756 mmHg 84%
    16:00 +27°C° 0 mm 3 mps 756 mmHg 84%
    17:00 +26°C° 0 mm 3 mps 756 mmHg 83%
    18:00 +26°C° 0 mm 2 mps 757 mmHg 85%
    19:00 +25°C° 0 mm 2 mps 757 mmHg 87%
    20:00 +25°C° 0 mm 1 mps 758 mmHg 89%
    21:00 +25°C° 0 mm 1 mps 758 mmHg 90%
    22:00 +25°C° 0 mm 1 mps 758 mmHg 91%
    23:00 +25°C° 0 mm 1 mps 758 mmHg 92%

    25 July, Thursday

    Time Temperature Precipitation Wind Pressure Humidity
    00:00 +25°C° 0 mm 1 mps 758 mmHg 94%
    01:00 +25°C° 0 mm 1 mps 757 mmHg 95%
    02:00 +24°C° 0 mm 1 mps 757 mmHg 97%
    03:00 +24°C° 0 mm 1 mps 757 mmHg 97%
    04:00 +24°C° 0 mm 1 mps 757 mmHg 98%
    05:00 +24°C° 0 mm 1 mps 757 mmHg 98%
    06:00 +25°C° 0 mm 2 mps 758 mmHg 95%
    07:00 +26°C° 0 mm 2 mps 758 mmHg 91%
    08:00 +27°C° 0 mm 2 mps 758 mmHg 87%
    09:00 +28°C° 0.1 mm 2 mps 758 mmHg 85%
    10:00 +28°C° 0.1 mm 2 mps 758 mmHg 83%
    11:00 +29°C° 0.1 mm 1 mps 758 mmHg 81%
    12:00 +30°C° 0.8 mm 1 mps 758 mmHg 79%
    13:00 +30°C° 0.8 mm 2 mps 757 mmHg 76%
    14:00 +31°C° 0.8 mm 2 mps 756 mmHg 74%
    15:00 +30°C° 1.2 mm 2 mps 756 mmHg 80%
    16:00 +29°C° 1.2 mm 2 mps 756 mmHg 85%
    17:00 +28°C° 1.2 mm 2 mps 756 mmHg 91%
    18:00 +27°C° 0.7 mm 2 mps 757 mmHg 92%
    19:00 +27°C° 0.7 mm 2 mps 758 mmHg 94%
    20:00 +26°C° 0.7 mm 2 mps 758 mmHg 95%
    21:00 +26°C° 0 mm 2 mps 758 mmHg 96%
    22:00 +26°C° 0 mm 1 mps 758 mmHg 96%
    23:00 +26°C° 0 mm 1 mps 759 mmHg 97%

    26 July, Friday

    Time Temperature Precipitation Wind Pressure Humidity
    00:00 +26°C° 0 mm 1 mps 758 mmHg 97%
    01:00 +25°C° 0 mm 1 mps 758 mmHg 97%
    02:00 +25°C° 0 mm 1 mps 758 mmHg 98%
    03:00 +25°C° 0 mm 1 mps 758 mmHg 97%
    04:00 +25°C° 0 mm 1 mps 758 mmHg 97%
    05:00 +23°C° 0 mm 0 mps 758 mmHg 96%
    06:00 +26°C° 0 mm 1 mps 759 mmHg 94%
    07:00 +26°C° 0 mm 1 mps 759 mmHg 92%
    08:00 +27°C° 0 mm 1 mps 759 mmHg 90%
    09:00 +28°C° 0 mm 1 mps 759 mmHg 85%
    10:00 +29°C° 0 mm 1 mps 759 mmHg 81%
    11:00 +30°C° 0 mm 1 mps 759 mmHg 76%
    12:00 +31°C° 0 mm 1 mps 758 mmHg 71%
    13:00 +33°C° 0 mm 1 mps 757 mmHg 66%
    14:00 +34°C° 0 mm 1 mps 756 mmHg 60%
    15:00 +33°C° 0.4 mm 1 mps 756 mmHg 65%
    16:00 +32°C° 0.4 mm 2 mps 756 mmHg 70%
    17:00 +31°C° 0.4 mm 2 mps 756 mmHg 75%
    18:00 +30°C° 0.6 mm 2 mps 756 mmHg 82%
    19:00 +28°C° 0.6 mm 2 mps 757 mmHg 88%
    20:00 +26°C° 0.6 mm 3 mps 757 mmHg 94%
    21:00 +26°C° 0.5 mm 2 mps 757 mmHg 95%
    22:00 +26°C° 0.5 mm 2 mps 758 mmHg 96%
    23:00 +26°C° 0.5 mm 2 mps 758 mmHg 96%
    Show more